Flag for USA

Past Weather in Lafayette, Louisiana, USA — Yesterday and Last 2 Weeks

Now
82 °F

Clear.


Feels Like: 90 °F
Forecast: 92 / 79 °F
Wind: 7 mph from Southwest

Location: Lafayette Regional Airport

Current Time: Jul 13, 2020 at 1:37:13 am

Latest Report: Jul 13, 2020 at 12:53 am


Visibility: 10 mi

Pressure: 29.88 "Hg

Humidity: 85%

Dew Point: 77 °F

Location of LafayetteLocation

Past Weather in Lafayette — Graph

°F

Lafayette Temperature Yesterday

Maximum temperature yesterday: 95 °F (at 2:53 pm)
Minimum temperature yesterday: 81 °F (at 3:53 am)
Average temperature yesterday: 87 °F

High & Low Weather Summary for the Past Weeks

 TemperatureHumidityPressure
High96 °F (Jul 10, 3:53 pm)94% (Jun 28, 4:53 am)30.06 "Hg (Jun 28, 4:53 am)
Low73 °F (Jul 4, 1:53 am)46% (Jul 4, 2:53 pm)29.84 "Hg (Jul 5, 4:53 am)
Average83 °F76%29.96 "Hg
* Reported Jun 27 11:53 pm — Jul 12 11:53 pm, Lafayette. Weather by CustomWeather, © 2020

Note: Actual official high and low records may vary slightly from our data, if they occured in-between our weather recording intervals... More about our weather records

Lafayette Weather History for the Previous 24 Hours

Scroll right to see more
 ConditionsComfort  
Time TempWeatherWind HumidityBarometerVisibility
11:53 pm
Sun, Jul 12
83 °FClear.7 mph79%29.89 "Hg10 mi
10:53 pm83 °FClear.9 mph77%29.89 "Hg10 mi
9:53 pm84 °FClear.8 mph74%29.87 "Hg10 mi
8:53 pm86 °FClear.9 mph72%29.86 "Hg10 mi
7:53 pm88 °FSunny.12 mph67%29.85 "Hg10 mi
6:53 pm90 °FPassing clouds.13 mph63%29.85 "Hg10 mi
5:53 pm92 °FPassing clouds.12 mph58%29.85 "Hg10 mi
4:53 pm94 °FScattered clouds.9 mph56%29.86 "Hg10 mi
3:53 pm94 °FScattered clouds.8 mph54%29.87 "Hg10 mi
2:53 pm95 °FScattered clouds.12 mph54%29.88 "Hg10 mi
1:53 pm94 °FScattered clouds.9 mph56%29.91 "Hg10 mi
12:53 pm92 °FPartly sunny.12 mph58%29.93 "Hg10 mi
11:53 am90 °FScattered clouds.12 mph66%29.93 "Hg10 mi
11:39 am90 °FPartly sunny.8 mph66%29.93 "Hg10 mi
10:53 am89 °FPassing clouds.8 mph70%29.94 "Hg10 mi
9:53 am87 °FPassing clouds.9 mph72%29.95 "Hg10 mi
8:53 am86 °FSunny.7 mph72%29.95 "Hg10 mi
7:53 am83 °FSunny.6 mph79%29.95 "Hg10 mi
6:53 am81 °FSunny.7 mph85%29.96 "Hg10 mi
5:53 am81 °FClear.6 mph88%29.98 "Hg10 mi
4:53 am81 °FClear.5 mph88%29.96 "Hg10 mi
3:53 am81 °FClear.7 mph88%29.96 "Hg10 mi
2:53 am82 °FClear.6 mph85%29.96 "Hg10 mi
1:53 am82 °FClear.8 mph85%29.94 "Hg10 mi
Weather by CustomWeather, © 2020

See weather overview